GEFSSE_prec_meanprecacc_042.txt.gz
Total_Precipitation_Accumulation
0.00 0.00 0.04 0.02 0.00 0.01 0.01 0.00 0.00 0.00 0.01 0.01 0.01 0.01 0.00 0.00 0.00 0.00 0.00 0.00 0.00 0.00 0.00 0.00 0.00 0.00 0.01 0.00 0.00 0.00 0.00 0.00 0.00 0.00 0.00 0.00 0.00 0.01 0.01 0.01 0.02 0.02 0.01
0.00 0.00 0.02 0.01 0.00 0.01 0.01 0.01 0.00 0.00 0.00 0.00 0.00 0.00 0.00 0.00 0.00 0.00 0.00 0.01 0.00 0.00 0.00 0.00 0.00 0.00 0.00 0.00 0.00 0.00 0.00 0.00 0.00 0.00 0.00 0.00 0.00 0.00 0.00 0.00 0.02 0.01 0.00
0.00 0.00 0.01 0.00 0.01 0.01 0.01 0.00 0.00 0.00 0.00 0.00 0.01 0.01 0.01 0.01 0.00 0.00 0.00 0.00 0.00 0.00 0.00 0.00 0.00 0.00 0.00 0.00 0.00 0.00 0.00 0.00 0.00 0.00 0.00 0.00 0.00 0.00 0.00 0.00 0.00 0.00 0.00
0.00 0.00 0.00 0.00 0.01 0.01 0.01 0.01 0.01 0.01 0.00 0.01 0.05 0.05 0.04 0.01 0.01 0.00 0.00 0.00 0.00 0.00 0.00 0.00 0.00 0.00 0.00 0.00 0.01 0.00 0.00 0.00 0.00 0.00 0.01 0.06 0.04 0.01 0.01 0.01 0.00 0.00 0.00
0.00 0.00 0.00 0.00 0.01 0.00 0.01 0.01 0.03 0.01 0.00 0.02 0.08 0.09 0.07 0.02 0.02 0.02 0.01 0.00 0.00 0.01 0.00 0.00 0.01 0.00 0.00 0.01 0.01 0.00 0.00 0.00 0.00 0.00 0.01 0.06 0.09 0.03 0.02 0.04 0.04 0.02 0.01
0.00 0.00 0.00 0.00 0.01 0.00 0.00 0.01 0.04 0.06 0.03 0.05 0.08 0.08 0.07 0.05 0.08 0.06 0.02 0.01 0.01 0.02 0.01 0.00 0.00 0.00 0.00 0.01 0.01 0.01 0.01 0.01 0.01 0.01 0.02 0.02 0.08 0.08 0.07 0.15 0.19 0.14 0.08
0.00 0.00 0.00 0.00 0.00 0.00 0.00 0.00 0.01 0.04 0.05 0.07 0.07 0.06 0.04 0.03 0.03 0.03 0.02 0.01 0.01 0.01 0.01 0.01 0.01 0.01 0.01 0.01 0.01 0.01 0.01 0.00 0.01 0.02 0.02 0.04 0.09 0.09 0.14 0.31 0.42 0.36 0.28
0.00 0.00 0.00 0.01 0.00 0.00 0.00 0.00 0.00 0.00 0.01 0.01 0.02 0.02 0.01 0.01 0.02 0.03 0.03 0.02 0.01 0.01 0.02 0.01 0.01 0.02 0.03 0.02 0.02 0.02 0.02 0.01 0.01 0.01 0.04 0.05 0.06 0.07 0.23 0.40 0.51 0.53 0.48
0.00 0.00 0.00 0.00 0.00 0.00 0.00 0.00 0.00 0.00 0.00 0.00 0.01 0.01 0.01 0.01 0.02 0.03 0.05 0.05 0.04 0.04 0.05 0.04 0.02 0.02 0.02 0.03 0.03 0.03 0.03 0.03 0.03 0.03 0.04 0.07 0.08 0.20 0.45 0.54 0.56 0.62 0.62
0.00 0.00 0.00 0.01 0.00 0.00 0.00 0.00 0.00 0.00 0.00 0.00 0.01 0.01 0.01 0.01 0.01 0.04 0.06 0.06 0.08 0.10 0.10 0.06 0.03 0.03 0.02 0.02 0.02 0.03 0.03 0.03 0.02 0.03 0.05 0.05 0.09 0.28 0.52 0.61 0.64 0.67 0.67
0.00 0.00 0.00 0.01 0.01 0.00 0.00 0.00 0.00 0.01 0.01 0.01 0.01 0.01 0.01 0.01 0.02 0.06 0.06 0.08 0.10 0.09 0.08 0.06 0.04 0.04 0.04 0.02 0.06 0.09 0.05 0.02 0.02 0.02 0.04 0.05 0.11 0.26 0.42 0.51 0.58 0.65 0.64
0.00 0.00 0.01 0.01 0.01 0.00 0.00 0.00 0.01 0.01 0.01 0.01 0.03 0.05 0.06 0.11 0.10 0.04 0.04 0.10 0.15 0.16 0.14 0.14 0.14 0.11 0.12 0.13 0.35 0.41 0.10 0.08 0.04 0.05 0.09 0.12 0.20 0.32 0.46 0.49 0.50 0.55 0.55
0.00 0.00 0.00 0.01 0.01 0.01 0.00 0.00 0.01 0.01 0.03 0.02 0.02 0.06 0.11 0.11 0.05 0.01 0.02 0.05 0.10 0.16 0.15 0.24 0.31 0.25 0.30 0.38 0.34 0.33 0.15 0.13 0.14 0.11 0.10 0.19 0.30 0.42 0.65 0.61 0.48 0.44 0.43
0.00 0.00 0.01 0.00 0.01 0.01 0.01 0.01 0.00 0.00 0.01 0.01 0.03 0.02 0.05 0.06 0.03 0.01 0.02 0.03 0.07 0.10 0.18 0.24 0.34 0.34 0.32 0.29 0.29 0.26 0.22 0.25 0.20 0.21 0.19 0.19 0.22 0.31 0.57 0.58 0.43 0.38 0.35
0.01 0.01 0.02 0.02 0.02 0.03 0.03 0.02 0.01 0.01 0.01 0.01 0.02 0.02 0.03 0.04 0.04 0.04 0.03 0.04 0.05 0.10 0.13 0.22 0.28 0.41 0.46 0.36 0.27 0.23 0.23 0.30 0.29 0.33 0.25 0.16 0.14 0.17 0.33 0.43 0.39 0.37 0.33
0.02 0.03 0.05 0.07 0.10 0.10 0.09 0.06 0.05 0.04 0.04 0.04 0.05 0.07 0.07 0.08 0.10 0.13 0.12 0.14 0.15 0.19 0.24 0.35 0.48 0.62 0.61 0.60 0.47 0.34 0.31 0.30 0.27 0.32 0.26 0.20 0.11 0.10 0.16 0.27 0.34 0.35 0.32
0.04 0.07 0.11 0.17 0.22 0.21 0.18 0.15 0.15 0.15 0.15 0.14 0.15 0.18 0.20 0.21 0.23 0.26 0.23 0.25 0.36 0.47 0.51 0.55 0.69 0.79 0.70 0.74 0.57 0.51 0.42 0.35 0.28 0.25 0.25 0.21 0.15 0.10 0.08 0.13 0.21 0.26 0.30
0.08 0.11 0.22 0.32 0.35 0.32 0.32 0.34 0.31 0.29 0.27 0.24 0.26 0.28 0.32 0.38 0.44 0.53 0.45 0.46 0.77 0.83 0.82 0.93 1.06 1.01 0.93 0.90 0.71 0.58 0.44 0.37 0.29 0.23 0.18 0.18 0.16 0.10 0.06 0.08 0.13 0.17 0.24
0.15 0.22 0.37 0.46 0.45 0.45 0.47 0.48 0.43 0.36 0.31 0.31 0.34 0.36 0.44 0.54 0.64 0.80 0.73 0.86 1.14 1.16 1.11 1.12 1.26 1.22 1.05 0.98 0.88 0.67 0.44 0.34 0.24 0.19 0.14 0.10 0.08 0.08 0.08 0.09 0.08 0.12 0.22
0.26 0.34 0.42 0.54 0.60 0.67 0.73 0.63 0.47 0.36 0.33 0.36 0.40 0.41 0.51 0.62 0.81 1.08 0.98 1.05 1.27 1.35 1.30 1.28 1.22 1.24 1.07 1.04 0.99 0.73 0.44 0.28 0.22 0.16 0.11 0.08 0.06 0.05 0.05 0.08 0.12 0.11 0.19
0.28 0.32 0.44 0.58 0.66 0.67 0.68 0.62 0.59 0.54 0.56 0.51 0.53 0.55 0.58 0.63 0.82 1.12 1.10 1.20 1.30 1.26 1.23 1.32 1.29 1.16 0.93 1.06 1.08 0.75 0.40 0.29 0.27 0.15 0.10 0.09 0.08 0.06 0.05 0.08 0.14 0.17 0.22
0.33 0.37 0.42 0.57 0.71 0.71 0.77 0.84 0.92 1.01 0.85 0.72 0.78 0.84 0.88 0.97 1.01 1.10 1.15 1.17 1.23 1.25 1.15 1.10 1.17 1.06 0.85 0.97 1.04 0.95 0.50 0.32 0.27 0.21 0.21 0.26 0.23 0.17 0.15 0.15 0.16 0.24 0.26
0.34 0.38 0.44 0.56 0.69 0.74 0.89 1.08 1.20 1.30 1.17 1.19 1.30 1.36 1.35 1.38 1.35 1.33 1.25 1.14 1.02 1.01 0.91 0.92 1.02 1.01 0.90 0.87 1.00 1.10 0.78 0.49 0.41 0.30 0.31 0.32 0.32 0.30 0.28 0.28 0.26 0.30 0.31
0.41 0.50 0.63 0.73 0.82 0.95 1.09 1.27 1.38 1.42 1.45 1.60 1.81 1.72 1.49 1.34 1.19 1.05 0.94 0.91 0.84 0.84 0.74 0.72 0.79 0.79 0.76 0.74 0.81 0.90 0.98 0.95 0.82 0.43 0.25 0.22 0.27 0.33 0.37 0.33 0.27 0.28 0.33
0.56 0.64 0.78 0.89 0.97 1.04 1.11 1.20 1.31 1.37 1.41 1.42 1.40 1.29 1.14 0.99 0.85 0.73 0.66 0.65 0.61 0.61 0.56 0.54 0.54 0.53 0.56 0.59 0.67 0.76 0.85 0.93 0.95 0.80 0.47 0.39 0.41 0.40 0.42 0.36 0.32 0.33 0.35
0.62 0.63 0.65 0.68 0.75 0.82 0.86 0.91 0.96 0.96 0.95 0.90 0.82 0.75 0.69 0.62 0.50 0.40 0.37 0.40 0.46 0.51 0.47 0.44 0.43 0.44 0.48 0.55 0.61 0.67 0.72 0.73 0.78 0.86 0.67 0.54 0.45 0.40 0.41 0.42 0.41 0.43 0.39

GEFSSE_prec_meanprecacc_048.txt.gz
Total_Precipitation_Accumulation
0.00 0.00 0.04 0.02 0.00 0.01 0.02 0.00 0.00 0.00 0.01 0.01 0.01 0.01 0.00 0.00 0.00 0.00 0.00 0.01 0.01 0.00 0.00 0.00 0.01 0.01 0.01 0.01 0.00 0.00 0.00 0.00 0.00 0.00 0.00 0.00 0.00 0.01 0.01 0.01 0.05 0.08 0.02
0.00 0.00 0.02 0.01 0.00 0.01 0.02 0.01 0.00 0.00 0.00 0.00 0.00 0.00 0.00 0.00 0.00 0.00 0.00 0.01 0.00 0.00 0.00 0.00 0.00 0.00 0.00 0.00 0.00 0.00 0.00 0.00 0.00 0.00 0.00 0.00 0.00 0.00 0.00 0.00 0.04 0.05 0.01
0.00 0.00 0.01 0.00 0.01 0.02 0.01 0.01 0.00 0.00 0.00 0.00 0.01 0.01 0.01 0.01 0.00 0.00 0.00 0.00 0.00 0.00 0.00 0.00 0.00 0.00 0.00 0.00 0.00 0.00 0.00 0.00 0.00 0.00 0.00 0.01 0.00 0.00 0.00 0.00 0.00 0.00 0.00
0.00 0.00 0.00 0.00 0.01 0.01 0.01 0.01 0.01 0.01 0.00 0.01 0.05 0.05 0.04 0.01 0.01 0.00 0.00 0.00 0.00 0.00 0.00 0.00 0.00 0.00 0.00 0.00 0.01 0.00 0.00 0.00 0.00 0.00 0.02 0.09 0.05 0.01 0.01 0.01 0.00 0.00 0.00
0.00 0.00 0.00 0.00 0.01 0.00 0.01 0.01 0.03 0.02 0.00 0.02 0.08 0.09 0.07 0.02 0.02 0.02 0.01 0.00 0.00 0.01 0.00 0.00 0.01 0.00 0.00 0.01 0.01 0.00 0.00 0.00 0.00 0.00 0.01 0.08 0.12 0.04 0.02 0.04 0.04 0.02 0.01
0.00 0.00 0.00 0.00 0.01 0.00 0.00 0.01 0.04 0.06 0.03 0.05 0.08 0.08 0.07 0.05 0.08 0.06 0.02 0.01 0.01 0.02 0.01 0.00 0.01 0.00 0.00 0.01 0.01 0.01 0.01 0.01 0.01 0.01 0.02 0.03 0.11 0.11 0.09 0.17 0.21 0.16 0.08
0.00 0.00 0.00 0.00 0.00 0.00 0.00 0.00 0.01 0.04 0.05 0.07 0.08 0.06 0.04 0.03 0.03 0.03 0.02 0.01 0.01 0.01 0.01 0.01 0.01 0.01 0.01 0.01 0.01 0.01 0.01 0.01 0.01 0.02 0.02 0.04 0.10 0.10 0.15 0.33 0.45 0.41 0.31
0.00 0.00 0.00 0.01 0.00 0.00 0.00 0.00 0.00 0.00 0.01 0.01 0.02 0.02 0.01 0.01 0.02 0.03 0.03 0.02 0.02 0.02 0.02 0.02 0.01 0.02 0.03 0.02 0.02 0.03 0.03 0.01 0.01 0.01 0.04 0.06 0.06 0.07 0.23 0.40 0.54 0.57 0.54
0.00 0.00 0.00 0.00 0.00 0.00 0.00 0.00 0.00 0.00 0.00 0.00 0.01 0.01 0.01 0.01 0.02 0.03 0.05 0.05 0.05 0.05 0.05 0.05 0.03 0.03 0.03 0.03 0.03 0.04 0.03 0.03 0.03 0.03 0.04 0.08 0.09 0.20 0.46 0.54 0.57 0.63 0.65
0.00 0.00 0.00 0.01 0.00 0.00 0.00 0.00 0.00 0.00 0.00 0.01 0.01 0.01 0.01 0.01 0.02 0.05 0.06 0.06 0.08 0.11 0.11 0.07 0.04 0.04 0.04 0.03 0.02 0.03 0.04 0.03 0.02 0.03 0.06 0.06 0.10 0.29 0.53 0.62 0.65 0.68 0.69
0.00 0.00 0.00 0.01 0.01 0.00 0.00 0.00 0.00 0.01 0.01 0.01 0.02 0.01 0.02 0.02 0.05 0.12 0.13 0.15 0.13 0.12 0.09 0.07 0.05 0.05 0.05 0.03 0.06 0.10 0.06 0.02 0.02 0.02 0.05 0.06 0.13 0.29 0.45 0.53 0.59 0.66 0.66
0.00 0.00 0.01 0.01 0.01 0.00 0.00 0.01 0.01 0.02 0.03 0.03 0.05 0.11 0.13 0.19 0.16 0.06 0.11 0.17 0.19 0.20 0.16 0.15 0.16 0.12 0.13 0.14 0.40 0.49 0.12 0.08 0.05 0.05 0.09 0.13 0.21 0.35 0.49 0.51 0.52 0.57 0.57
0.00 0.00 0.00 0.01 0.01 0.01 0.00 0.01 0.01 0.01 0.06 0.05 0.06 0.13 0.18 0.17 0.09 0.03 0.04 0.10 0.19 0.23 0.20 0.30 0.37 0.29 0.33 0.42 0.40 0.41 0.17 0.14 0.15 0.11 0.12 0.21 0.32 0.46 0.68 0.63 0.51 0.48 0.47
0.00 0.00 0.01 0.00 0.01 0.01 0.01 0.01 0.01 0.01 0.02 0.03 0.06 0.05 0.11 0.13 0.07 0.04 0.05 0.06 0.14 0.20 0.31 0.36 0.47 0.43 0.40 0.35 0.34 0.29 0.24 0.28 0.21 0.23 0.22 0.21 0.25 0.34 0.61 0.61 0.46 0.43 0.40
0.01 0.01 0.02 0.02 0.02 0.03 0.03 0.02 0.01 0.01 0.02 0.02 0.04 0.04 0.06 0.11 0.10 0.12 0.12 0.12 0.10 0.17 0.26 0.34 0.37 0.53 0.58 0.46 0.34 0.26 0.26 0.33 0.32 0.35 0.28 0.20 0.17 0.20 0.37 0.47 0.43 0.41 0.38
0.02 0.03 0.05 0.07 0.10 0.10 0.09 0.07 0.06 0.05 0.06 0.05 0.07 0.10 0.11 0.15 0.21 0.24 0.24 0.28 0.27 0.33 0.37 0.47 0.61 0.81 0.78 0.76 0.57 0.42 0.37 0.34 0.31 0.37 0.32 0.28 0.20 0.16 0.20 0.32 0.38 0.38 0.36
0.04 0.07 0.11 0.18 0.22 0.21 0.19 0.17 0.16 0.16 0.17 0.16 0.19 0.22 0.25 0.31 0.38 0.40 0.36 0.38 0.52 0.64 0.69 0.71 0.87 1.04 0.87 0.91 0.72 0.64 0.53 0.45 0.36 0.33 0.32 0.28 0.24 0.19 0.15 0.18 0.25 0.29 0.33
0.08 0.11 0.22 0.32 0.35 0.33 0.34 0.36 0.32 0.30 0.29 0.27 0.29 0.31 0.36 0.44 0.51 0.62 0.54 0.55 0.91 1.00 1.01 1.11 1.25 1.24 1.13 1.11 0.95 0.77 0.59 0.51 0.41 0.33 0.27 0.26 0.24 0.16 0.13 0.14 0.17 0.20 0.27
0.15 0.23 0.37 0.47 0.47 0.47 0.50 0.51 0.46 0.38 0.32 0.32 0.36 0.39 0.46 0.56 0.66 0.84 0.77 0.92 1.23 1.26 1.22 1.24 1.47 1.42 1.25 1.22 1.14 0.88 0.59 0.47 0.34 0.29 0.25 0.20 0.20 0.19 0.15 0.15 0.13 0.15 0.25
0.29 0.36 0.45 0.57 0.64 0.72 0.77 0.67 0.50 0.37 0.34 0.38 0.41 0.42 0.51 0.63 0.81 1.09 1.00 1.08 1.31 1.40 1.36 1.35 1.32 1.36 1.21 1.22 1.17 0.90 0.59 0.39 0.33 0.27 0.22 0.17 0.13 0.11 0.11 0.12 0.16 0.14 0.22
0.39 0.40 0.50 0.64 0.73 0.73 0.72 0.65 0.62 0.56 0.57 0.51 0.53 0.56 0.59 0.63 0.82 1.13 1.10 1.20 1.31 1.27 1.25 1.34 1.34 1.23 1.01 1.18 1.21 0.87 0.52 0.38 0.34 0.22 0.18 0.14 0.13 0.09 0.08 0.11 0.17 0.21 0.26
0.43 0.50 0.52 0.64 0.77 0.76 0.81 0.87 0.95 1.02 0.86 0.72 0.78 0.84 0.88 0.97 1.01 1.10 1.15 1.17 1.23 1.26 1.15 1.11 1.19 1.08 0.89 1.05 1.13 1.05 0.58 0.38 0.31 0.24 0.24 0.28 0.25 0.20 0.17 0.18 0.19 0.27 0.31
0.44 0.48 0.52 0.62 0.75 0.79 0.93 1.11 1.21 1.31 1.17 1.19 1.30 1.36 1.35 1.38 1.35 1.33 1.25 1.14 1.02 1.01 0.92 0.93 1.03 1.04 0.92 0.92 1.08 1.20 0.87 0.57 0.49 0.35 0.35 0.35 0.35 0.34 0.31 0.31 0.29 0.34 0.35
0.62 0.69 0.77 0.82 0.89 1.00 1.15 1.33 1.42 1.44 1.45 1.61 1.81 1.72 1.49 1.34 1.19 1.05 0.94 0.91 0.85 0.84 0.75 0.73 0.80 0.81 0.79 0.77 0.85 0.97 1.05 1.04 0.91 0.49 0.31 0.27 0.32 0.37 0.40 0.35 0.29 0.32 0.38
0.78 0.87 0.99 1.01 1.05 1.10 1.17 1.26 1.36 1.41 1.42 1.43 1.40 1.29 1.14 0.99 0.85 0.73 0.66 0.65 0.62 0.62 0.56 0.55 0.55 0.55 0.58 0.61 0.70 0.81 0.92 1.01 1.04 0.88 0.52 0.46 0.48 0.45 0.45 0.38 0.35 0.37 0.40
0.82 0.79 0.77 0.78 0.83 0.89 0.93 0.98 1.02 1.00 0.98 0.92 0.83 0.76 0.69 0.62 0.50 0.40 0.37 0.40 0.46 0.52 0.48 0.45 0.44 0.45 0.50 0.58 0.65 0.71 0.79 0.79 0.85 0.94 0.74 0.61 0.54 0.47 0.49 0.52 0.50 0.52 0.48

GEFSSE_prec_meanprecacc_054.txt.gz
Total_Precipitation_Accumulation
0.00 0.00 0.04 0.02 0.00 0.01 0.02 0.00 0.00 0.00 0.01 0.01 0.01 0.01 0.00 0.00 0.00 0.00 0.00 0.01 0.01 0.00 0.00 0.01 0.01 0.01 0.01 0.01 0.00 0.00 0.00 0.00 0.00 0.00 0.01 0.01 0.01 0.01 0.01 0.01 0.05 0.08 0.02
0.00 0.00 0.02 0.01 0.00 0.01 0.02 0.01 0.00 0.00 0.00 0.00 0.00 0.00 0.00 0.00 0.00 0.00 0.00 0.01 0.00 0.00 0.00 0.00 0.00 0.00 0.00 0.00 0.00 0.00 0.00 0.00 0.00 0.00 0.00 0.00 0.00 0.00 0.01 0.01 0.04 0.05 0.01
0.00 0.00 0.01 0.00 0.01 0.02 0.01 0.01 0.01 0.00 0.00 0.00 0.01 0.02 0.01 0.01 0.00 0.00 0.00 0.00 0.00 0.00 0.00 0.00 0.00 0.00 0.00 0.00 0.00 0.00 0.00 0.00 0.00 0.00 0.01 0.01 0.00 0.00 0.00 0.00 0.00 0.00 0.00
0.00 0.00 0.00 0.00 0.01 0.01 0.01 0.01 0.01 0.01 0.00 0.01 0.05 0.05 0.04 0.01 0.01 0.00 0.00 0.00 0.00 0.00 0.00 0.00 0.00 0.00 0.00 0.00 0.01 0.00 0.00 0.00 0.00 0.00 0.02 0.11 0.06 0.01 0.01 0.01 0.00 0.00 0.00
0.00 0.00 0.00 0.00 0.01 0.00 0.01 0.02 0.03 0.02 0.01 0.02 0.08 0.09 0.07 0.02 0.02 0.02 0.01 0.00 0.00 0.01 0.00 0.00 0.01 0.00 0.00 0.01 0.01 0.00 0.00 0.00 0.00 0.00 0.02 0.10 0.14 0.05 0.03 0.05 0.04 0.02 0.01
0.00 0.00 0.00 0.00 0.01 0.00 0.01 0.01 0.04 0.06 0.04 0.05 0.08 0.09 0.07 0.05 0.08 0.06 0.02 0.01 0.01 0.02 0.01 0.00 0.01 0.00 0.00 0.01 0.01 0.01 0.01 0.01 0.01 0.01 0.02 0.03 0.12 0.12 0.10 0.18 0.21 0.16 0.09
0.00 0.00 0.00 0.00 0.00 0.00 0.00 0.00 0.02 0.04 0.05 0.07 0.08 0.06 0.04 0.03 0.03 0.03 0.02 0.01 0.01 0.01 0.01 0.01 0.01 0.01 0.01 0.01 0.01 0.01 0.01 0.01 0.01 0.02 0.02 0.05 0.11 0.12 0.17 0.34 0.46 0.41 0.31
0.00 0.00 0.00 0.01 0.00 0.00 0.00 0.00 0.00 0.01 0.01 0.01 0.02 0.02 0.01 0.01 0.02 0.03 0.03 0.02 0.02 0.02 0.02 0.02 0.01 0.02 0.03 0.02 0.02 0.03 0.03 0.01 0.01 0.01 0.04 0.06 0.07 0.09 0.27 0.43 0.55 0.57 0.54
0.00 0.00 0.00 0.00 0.00 0.00 0.00 0.00 0.00 0.00 0.00 0.01 0.01 0.01 0.01 0.01 0.02 0.03 0.05 0.05 0.05 0.05 0.06 0.05 0.03 0.03 0.03 0.03 0.03 0.04 0.03 0.03 0.03 0.03 0.04 0.08 0.10 0.23 0.52 0.59 0.59 0.64 0.66
0.00 0.00 0.00 0.01 0.00 0.00 0.00 0.00 0.00 0.00 0.00 0.01 0.01 0.01 0.01 0.01 0.02 0.05 0.07 0.08 0.09 0.12 0.12 0.07 0.05 0.04 0.04 0.03 0.02 0.03 0.04 0.04 0.03 0.03 0.06 0.06 0.11 0.33 0.61 0.68 0.69 0.70 0.71
0.00 0.00 0.00 0.01 0.01 0.00 0.00 0.00 0.00 0.01 0.01 0.01 0.02 0.02 0.02 0.02 0.06 0.12 0.15 0.21 0.19 0.18 0.14 0.10 0.07 0.07 0.07 0.03 0.07 0.11 0.07 0.02 0.02 0.02 0.05 0.06 0.14 0.34 0.54 0.60 0.64 0.70 0.69
0.00 0.01 0.01 0.01 0.01 0.00 0.00 0.01 0.01 0.02 0.04 0.03 0.06 0.11 0.14 0.20 0.17 0.07 0.13 0.27 0.33 0.33 0.26 0.25 0.24 0.18 0.17 0.16 0.42 0.53 0.14 0.10 0.06 0.05 0.10 0.13 0.24 0.42 0.61 0.60 0.58 0.62 0.60
0.00 0.00 0.00 0.01 0.01 0.01 0.00 0.01 0.01 0.01 0.06 0.05 0.06 0.14 0.20 0.19 0.12 0.06 0.07 0.17 0.31 0.36 0.29 0.43 0.50 0.37 0.40 0.48 0.47 0.49 0.24 0.18 0.19 0.15 0.15 0.25 0.38 0.57 0.84 0.74 0.59 0.54 0.50
0.00 0.00 0.01 0.00 0.01 0.01 0.01 0.01 0.01 0.01 0.03 0.04 0.08 0.08 0.16 0.18 0.11 0.10 0.11 0.12 0.21 0.29 0.41 0.46 0.58 0.56 0.53 0.47 0.48 0.46 0.42 0.42 0.34 0.38 0.37 0.31 0.37 0.52 0.83 0.78 0.57 0.51 0.45
0.01 0.02 0.02 0.02 0.03 0.03 0.03 0.03 0.02 0.02 0.03 0.04 0.08 0.08 0.10 0.15 0.15 0.17 0.18 0.18 0.17 0.25 0.36 0.44 0.49 0.70 0.79 0.62 0.49 0.47 0.48 0.55 0.53 0.62 0.59 0.48 0.42 0.49 0.67 0.74 0.61 0.53 0.46
0.05 0.05 0.06 0.09 0.12 0.11 0.10 0.08 0.07 0.07 0.09 0.09 0.12 0.14 0.15 0.21 0.26 0.28 0.29 0.32 0.31 0.37 0.43 0.55 0.70 0.93 0.92 0.88 0.70 0.58 0.56 0.53 0.50 0.57 0.60 0.62 0.59 0.55 0.54 0.60 0.60 0.53 0.47
0.12 0.13 0.17 0.24 0.29 0.27 0.22 0.20 0.19 0.20 0.22 0.21 0.24 0.26 0.29 0.35 0.41 0.42 0.38 0.40 0.55 0.69 0.73 0.75 0.91 1.11 0.93 0.98 0.81 0.75 0.64 0.56 0.47 0.47 0.54 0.56 0.52 0.51 0.55 0.57 0.53 0.47 0.47
0.27 0.28 0.39 0.48 0.50 0.46 0.45 0.45 0.41 0.39 0.38 0.34 0.34 0.35 0.39 0.46 0.53 0.63 0.55 0.56 0.94 1.03 1.04 1.14 1.30 1.29 1.18 1.16 1.02 0.84 0.66 0.59 0.49 0.43 0.40 0.43 0.46 0.44 0.52 0.57 0.49 0.41 0.43
0.61 0.67 0.82 0.90 0.85 0.76 0.73 0.71 0.66 0.53 0.43 0.39 0.41 0.43 0.50 0.58 0.68 0.85 0.78 0.93 1.24 1.27 1.24 1.26 1.50 1.46 1.29 1.27 1.20 0.94 0.65 0.53 0.40 0.34 0.30 0.27 0.31 0.37 0.37 0.39 0.38 0.38 0.49
1.02 1.20 1.18 1.22 1.32 1.28 1.18 0.98 0.74 0.52 0.44 0.44 0.46 0.48 0.58 0.68 0.85 1.11 1.01 1.09 1.32 1.41 1.36 1.36 1.32 1.37 1.23 1.24 1.20 0.92 0.62 0.41 0.35 0.29 0.25 0.21 0.19 0.19 0.22 0.28 0.31 0.29 0.39
1.27 1.47 1.59 1.65 1.67 1.53 1.29 1.02 0.84 0.73 0.70 0.61 0.61 0.62 0.66 0.71 0.86 1.15 1.11 1.21 1.31 1.27 1.25 1.35 1.35 1.23 1.01 1.19 1.22 0.88 0.53 0.39 0.35 0.23 0.20 0.18 0.16 0.15 0.15 0.21 0.28 0.32 0.37
1.32 1.61 1.70 1.83 1.86 1.66 1.41 1.23 1.21 1.23 1.02 0.84 0.89 0.93 0.96 1.02 1.04 1.11 1.15 1.17 1.23 1.26 1.15 1.12 1.19 1.09 0.89 1.05 1.13 1.05 0.59 0.39 0.32 0.26 0.28 0.34 0.31 0.26 0.23 0.26 0.28 0.38 0.46
1.29 1.43 1.51 1.55 1.53 1.38 1.31 1.36 1.43 1.48 1.30 1.28 1.36 1.41 1.39 1.41 1.36 1.34 1.25 1.14 1.02 1.01 0.92 0.93 1.03 1.04 0.92 0.92 1.09 1.21 0.88 0.58 0.50 0.36 0.37 0.38 0.39 0.39 0.36 0.38 0.38 0.45 0.51
1.32 1.49 1.62 1.58 1.40 1.29 1.33 1.48 1.56 1.56 1.54 1.67 1.86 1.76 1.52 1.36 1.20 1.06 0.94 0.91 0.85 0.84 0.75 0.73 0.80 0.81 0.79 0.77 0.85 0.98 1.06 1.05 0.92 0.50 0.31 0.28 0.35 0.40 0.46 0.44 0.39 0.43 0.52
1.16 1.25 1.41 1.47 1.38 1.33 1.34 1.40 1.48 1.50 1.50 1.49 1.45 1.35 1.20 1.04 0.87 0.73 0.67 0.65 0.62 0.62 0.56 0.55 0.55 0.55 0.58 0.61 0.70 0.81 0.93 1.02 1.06 0.90 0.53 0.46 0.49 0.47 0.50 0.46 0.46 0.48 0.49
0.96 0.97 0.95 1.02 1.08 1.13 1.15 1.17 1.17 1.13 1.08 1.01 0.91 0.87 0.81 0.70 0.53 0.42 0.39 0.41 0.46 0.52 0.48 0.45 0.44 0.45 0.50 0.58 0.65 0.72 0.79 0.79 0.86 0.96 0.76 0.63 0.55 0.49 0.52 0.56 0.56 0.61 0.58

GEFSSE_prec_meanprecacc_060.txt.gz
Total_Precipitation_Accumulation
0.00 0.00 0.05 0.02 0.00 0.01 0.02 0.00 0.00 0.00 0.01 0.01 0.01 0.01 0.01 0.00 0.00 0.00 0.00 0.01 0.01 0.01 0.01 0.01 0.01 0.01 0.01 0.01 0.00 0.00 0.00 0.00 0.00 0.00 0.01 0.01 0.01 0.02 0.03 0.03 0.05 0.09 0.03
0.00 0.00 0.02 0.01 0.01 0.01 0.02 0.01 0.00 0.00 0.00 0.00 0.00 0.00 0.01 0.01 0.00 0.00 0.00 0.01 0.00 0.00 0.00 0.00 0.00 0.00 0.00 0.00 0.00 0.00 0.00 0.00 0.00 0.00 0.01 0.01 0.01 0.02 0.03 0.02 0.05 0.05 0.01
0.00 0.00 0.01 0.00 0.01 0.02 0.01 0.01 0.01 0.00 0.00 0.01 0.01 0.02 0.01 0.01 0.00 0.01 0.00 0.00 0.00 0.00 0.00 0.00 0.00 0.00 0.00 0.00 0.00 0.00 0.00 0.00 0.00 0.00 0.01 0.02 0.01 0.01 0.02 0.01 0.01 0.01 0.01
0.00 0.00 0.00 0.01 0.01 0.01 0.01 0.01 0.01 0.01 0.00 0.01 0.05 0.05 0.04 0.01 0.01 0.01 0.00 0.00 0.00 0.00 0.00 0.00 0.00 0.00 0.00 0.00 0.01 0.00 0.00 0.00 0.00 0.00 0.02 0.11 0.06 0.02 0.02 0.02 0.01 0.01 0.01
0.00 0.00 0.00 0.00 0.01 0.00 0.01 0.02 0.03 0.02 0.01 0.03 0.08 0.09 0.07 0.02 0.02 0.03 0.01 0.01 0.00 0.01 0.00 0.00 0.01 0.00 0.00 0.01 0.01 0.00 0.00 0.00 0.00 0.00 0.02 0.10 0.14 0.05 0.04 0.06 0.05 0.03 0.02
0.00 0.00 0.00 0.01 0.01 0.00 0.01 0.01 0.04 0.06 0.04 0.05 0.08 0.09 0.07 0.05 0.08 0.07 0.02 0.01 0.01 0.02 0.01 0.00 0.01 0.00 0.00 0.01 0.01 0.01 0.01 0.01 0.01 0.01 0.02 0.03 0.12 0.13 0.12 0.20 0.23 0.17 0.09
0.00 0.00 0.00 0.01 0.00 0.00 0.00 0.01 0.02 0.04 0.05 0.07 0.08 0.06 0.04 0.03 0.03 0.03 0.02 0.01 0.01 0.01 0.01 0.01 0.01 0.01 0.01 0.01 0.01 0.01 0.01 0.01 0.01 0.02 0.02 0.05 0.11 0.12 0.19 0.38 0.50 0.45 0.34
0.00 0.00 0.00 0.01 0.00 0.00 0.00 0.00 0.01 0.01 0.01 0.01 0.02 0.02 0.01 0.01 0.02 0.03 0.03 0.02 0.02 0.02 0.02 0.02 0.01 0.02 0.03 0.02 0.02 0.03 0.03 0.02 0.01 0.01 0.04 0.06 0.07 0.09 0.30 0.48 0.60 0.62 0.58
0.00 0.00 0.00 0.01 0.00 0.00 0.00 0.00 0.00 0.01 0.01 0.01 0.01 0.01 0.01 0.01 0.02 0.03 0.06 0.06 0.05 0.05 0.06 0.05 0.03 0.03 0.03 0.04 0.03 0.04 0.04 0.03 0.03 0.03 0.04 0.08 0.10 0.24 0.57 0.67 0.66 0.71 0.72
0.00 0.00 0.00 0.01 0.00 0.00 0.00 0.00 0.00 0.01 0.01 0.01 0.01 0.01 0.01 0.01 0.02 0.05 0.08 0.08 0.10 0.13 0.14 0.09 0.06 0.05 0.05 0.03 0.03 0.04 0.04 0.04 0.03 0.03 0.06 0.06 0.12 0.36 0.69 0.80 0.81 0.80 0.79
0.00 0.01 0.01 0.01 0.01 0.00 0.00 0.00 0.01 0.01 0.01 0.01 0.02 0.02 0.02 0.03 0.06 0.13 0.17 0.24 0.24 0.26 0.23 0.18 0.14 0.13 0.13 0.08 0.10 0.14 0.09 0.03 0.03 0.03 0.05 0.06 0.16 0.37 0.63 0.77 0.81 0.85 0.80
0.00 0.01 0.01 0.01 0.01 0.01 0.00 0.01 0.01 0.02 0.04 0.04 0.06 0.11 0.15 0.21 0.18 0.09 0.16 0.35 0.46 0.51 0.45 0.42 0.41 0.33 0.28 0.23 0.50 0.62 0.17 0.11 0.07 0.06 0.10 0.15 0.28 0.48 0.72 0.75 0.74 0.78 0.74
0.01 0.01 0.01 0.01 0.01 0.01 0.01 0.01 0.01 0.02 0.07 0.06 0.08 0.15 0.22 0.22 0.15 0.08 0.11 0.24 0.43 0.52 0.41 0.54 0.64 0.47 0.48 0.56 0.55 0.57 0.29 0.22 0.21 0.17 0.18 0.30 0.46 0.68 0.98 0.91 0.76 0.71 0.67
0.01 0.02 0.01 0.01 0.02 0.02 0.02 0.01 0.01 0.02 0.04 0.05 0.11 0.12 0.19 0.24 0.18 0.17 0.19 0.22 0.31 0.40 0.52 0.56 0.67 0.66 0.63 0.57 0.57 0.54 0.48 0.48 0.40 0.46 0.43 0.39 0.49 0.68 1.02 1.00 0.78 0.72 0.65
0.05 0.06 0.06 0.04 0.04 0.04 0.04 0.04 0.05 0.07 0.09 0.11 0.15 0.15 0.17 0.24 0.25 0.28 0.26 0.25 0.24 0.33 0.44 0.54 0.60 0.81 0.89 0.70 0.57 0.55 0.55 0.62 0.61 0.70 0.65 0.57 0.56 0.65 0.86 0.97 0.87 0.80 0.71
0.11 0.15 0.17 0.18 0.21 0.20 0.19 0.19 0.23 0.24 0.25 0.24 0.25 0.27 0.27 0.32 0.37 0.39 0.36 0.39 0.37 0.42 0.49 0.62 0.76 1.00 0.98 0.93 0.75 0.64 0.61 0.59 0.56 0.62 0.64 0.68 0.68 0.66 0.67 0.76 0.81 0.76 0.69
0.23 0.30 0.35 0.43 0.49 0.50 0.47 0.48 0.51 0.49 0.47 0.49 0.52 0.54 0.51 0.51 0.55 0.54 0.46 0.47 0.61 0.73 0.78 0.80 0.96 1.15 0.97 1.01 0.84 0.78 0.68 0.60 0.51 0.51 0.59 0.61 0.58 0.59 0.63 0.68 0.68 0.65 0.65
0.44 0.51 0.66 0.77 0.82 0.84 0.88 0.93 0.96 0.91 0.86 0.83 0.82 0.83 0.74 0.69 0.70 0.76 0.64 0.64 1.00 1.08 1.08 1.19 1.33 1.32 1.20 1.17 1.03 0.86 0.69 0.62 0.51 0.46 0.43 0.47 0.50 0.48 0.56 0.65 0.62 0.57 0.62
0.87 1.04 1.26 1.36 1.35 1.31 1.38 1.42 1.38 1.22 1.08 1.00 0.93 0.91 0.84 0.84 0.85 0.98 0.90 1.04 1.33 1.33 1.29 1.30 1.53 1.47 1.30 1.28 1.20 0.95 0.67 0.55 0.42 0.37 0.32 0.29 0.33 0.39 0.40 0.44 0.46 0.49 0.62
1.34 1.65 1.72 1.83 2.05 2.05 2.03 1.87 1.57 1.22 1.02 0.98 0.98 0.91 0.90 0.96 1.05 1.27 1.16 1.22 1.40 1.46 1.41 1.40 1.35 1.38 1.24 1.25 1.21 0.94 0.63 0.43 0.36 0.30 0.26 0.22 0.20 0.21 0.25 0.31 0.36 0.36 0.48
1.55 1.84 2.11 2.34 2.46 2.33 2.10 1.87 1.66 1.43 1.31 1.16 1.07 1.01 0.94 0.94 1.05 1.29 1.21 1.29 1.38 1.33 1.29 1.38 1.37 1.24 1.02 1.20 1.23 0.89 0.54 0.40 0.35 0.24 0.21 0.18 0.17 0.15 0.17 0.24 0.31 0.36 0.40
1.58 1.96 2.21 2.48 2.52 2.28 2.03 1.89 1.83 1.74 1.45 1.21 1.21 1.16 1.11 1.13 1.13 1.22 1.24 1.23 1.27 1.28 1.17 1.13 1.20 1.09 0.89 1.05 1.14 1.06 0.59 0.39 0.32 0.26 0.29 0.34 0.31 0.26 0.24 0.27 0.30 0.40 0.47
1.47 1.69 1.86 1.95 1.92 1.79 1.75 1.80 1.82 1.82 1.58 1.51 1.54 1.56 1.51 1.51 1.45 1.41 1.32 1.18 1.04 1.02 0.92 0.93 1.03 1.04 0.92 0.92 1.09 1.21 0.88 0.58 0.50 0.36 0.37 0.38 0.39 0.39 0.37 0.39 0.39 0.46 0.53
1.44 1.61 1.76 1.74 1.59 1.47 1.51 1.68 1.77 1.74 1.70 1.81 2.00 1.90 1.67 1.49 1.31 1.14 1.01 0.96 0.88 0.85 0.75 0.73 0.80 0.81 0.79 0.77 0.85 0.98 1.06 1.05 0.92 0.50 0.31 0.28 0.35 0.40 0.46 0.44 0.39 0.43 0.52
1.22 1.31 1.46 1.54 1.46 1.42 1.44 1.51 1.61 1.64 1.63 1.63 1.61 1.53 1.40 1.22 1.00 0.83 0.75 0.71 0.67 0.65 0.58 0.56 0.55 0.55 0.58 0.61 0.70 0.81 0.93 1.02 1.06 0.90 0.53 0.46 0.49 0.47 0.50 0.46 0.46 0.48 0.50
1.00 1.01 0.99 1.06 1.13 1.20 1.24 1.27 1.28 1.25 1.21 1.15 1.06 1.02 0.95 0.84 0.65 0.51 0.46 0.48 0.53 0.57 0.51 0.47 0.45 0.46 0.51 0.58 0.65 0.72 0.79 0.79 0.86 0.96 0.76 0.63 0.55 0.49 0.52 0.56 0.57 0.62 0.59

GEFSSE_prec_meanprecacc_066.txt.gz
Total_Precipitation_Accumulation
0.00 0.00 0.05 0.02 0.01 0.01 0.02 0.01 0.00 0.00 0.01 0.01 0.01 0.01 0.01 0.00 0.00 0.00 0.00 0.01 0.01 0.01 0.01 0.01 0.01 0.02 0.02 0.02 0.01 0.01 0.01 0.00 0.00 0.00 0.01 0.01 0.02 0.03 0.05 0.04 0.06 0.09 0.04
0.00 0.00 0.02 0.01 0.01 0.01 0.02 0.01 0.00 0.00 0.00 0.01 0.01 0.00 0.01 0.01 0.00 0.01 0.01 0.01 0.00 0.00 0.00 0.00 0.01 0.01 0.01 0.01 0.01 0.01 0.00 0.00 0.00 0.01 0.01 0.01 0.02 0.03 0.04 0.02 0.06 0.06 0.02
0.00 0.00 0.01 0.00 0.01 0.02 0.01 0.01 0.01 0.00 0.00 0.01 0.01 0.02 0.02 0.01 0.01 0.01 0.01 0.01 0.01 0.00 0.00 0.00 0.00 0.00 0.01 0.01 0.01 0.00 0.00 0.00 0.01 0.01 0.02 0.03 0.02 0.02 0.03 0.02 0.02 0.02 0.02
0.00 0.00 0.00 0.01 0.01 0.01 0.01 0.01 0.02 0.01 0.01 0.01 0.05 0.05 0.05 0.01 0.01 0.01 0.01 0.01 0.00 0.00 0.00 0.00 0.00 0.00 0.00 0.01 0.01 0.00 0.00 0.00 0.01 0.01 0.04 0.12 0.07 0.02 0.02 0.03 0.02 0.02 0.02
0.00 0.00 0.00 0.01 0.01 0.01 0.01 0.02 0.03 0.02 0.01 0.03 0.08 0.09 0.07 0.02 0.02 0.03 0.01 0.01 0.01 0.01 0.01 0.00 0.01 0.00 0.00 0.01 0.01 0.00 0.00 0.01 0.01 0.01 0.03 0.12 0.16 0.07 0.05 0.07 0.06 0.05 0.04
0.00 0.00 0.00 0.01 0.01 0.01 0.01 0.01 0.04 0.06 0.04 0.05 0.08 0.09 0.07 0.06 0.08 0.07 0.03 0.02 0.02 0.02 0.02 0.01 0.01 0.01 0.00 0.01 0.01 0.01 0.01 0.01 0.01 0.03 0.03 0.04 0.14 0.14 0.13 0.22 0.25 0.19 0.12
0.00 0.00 0.00 0.01 0.01 0.00 0.00 0.01 0.02 0.04 0.05 0.07 0.08 0.07 0.04 0.03 0.03 0.03 0.02 0.02 0.02 0.01 0.01 0.01 0.01 0.01 0.01 0.01 0.01 0.01 0.01 0.01 0.01 0.03 0.03 0.06 0.13 0.13 0.20 0.40 0.54 0.48 0.36
0.00 0.00 0.00 0.01 0.01 0.00 0.00 0.00 0.01 0.01 0.01 0.02 0.02 0.02 0.01 0.01 0.02 0.04 0.03 0.02 0.02 0.02 0.02 0.02 0.02 0.03 0.03 0.03 0.02 0.03 0.03 0.02 0.01 0.02 0.04 0.07 0.08 0.10 0.32 0.53 0.66 0.67 0.61
0.00 0.00 0.00 0.01 0.01 0.01 0.01 0.00 0.00 0.01 0.01 0.01 0.01 0.01 0.01 0.01 0.02 0.04 0.06 0.06 0.06 0.06 0.06 0.05 0.04 0.03 0.03 0.04 0.04 0.04 0.04 0.04 0.03 0.03 0.05 0.09 0.11 0.25 0.62 0.76 0.76 0.79 0.77
0.00 0.00 0.01 0.01 0.01 0.01 0.01 0.01 0.01 0.01 0.01 0.01 0.01 0.01 0.01 0.01 0.02 0.05 0.08 0.09 0.11 0.15 0.16 0.11 0.08 0.07 0.06 0.05 0.04 0.04 0.05 0.05 0.04 0.03 0.07 0.07 0.12 0.37 0.73 0.90 0.93 0.91 0.86
0.01 0.01 0.01 0.02 0.02 0.01 0.01 0.01 0.01 0.02 0.02 0.02 0.03 0.03 0.03 0.03 0.07 0.14 0.18 0.25 0.26 0.28 0.28 0.23 0.21 0.19 0.18 0.12 0.14 0.18 0.12 0.05 0.05 0.04 0.06 0.07 0.16 0.38 0.66 0.85 0.93 0.96 0.90
0.01 0.01 0.01 0.02 0.02 0.02 0.01 0.03 0.03 0.04 0.06 0.06 0.09 0.14 0.18 0.24 0.21 0.10 0.18 0.37 0.49 0.56 0.53 0.51 0.52 0.42 0.35 0.29 0.57 0.70 0.21 0.14 0.11 0.08 0.11 0.16 0.30 0.50 0.75 0.80 0.82 0.88 0.85
0.01 0.01 0.01 0.02 0.03 0.03 0.03 0.03 0.04 0.05 0.10 0.10 0.12 0.20 0.26 0.27 0.19 0.12 0.15 0.28 0.48 0.59 0.50 0.67 0.78 0.55 0.59 0.67 0.66 0.65 0.34 0.30 0.28 0.22 0.22 0.33 0.49 0.71 1.01 0.95 0.81 0.79 0.77
0.02 0.02 0.02 0.02 0.03 0.04 0.04 0.03 0.04 0.05 0.07 0.09 0.15 0.17 0.25 0.30 0.23 0.23 0.26 0.29 0.39 0.49 0.66 0.74 0.84 0.80 0.79 0.71 0.69 0.64 0.58 0.58 0.48 0.57 0.53 0.44 0.54 0.73 1.06 1.03 0.82 0.77 0.72
0.05 0.06 0.06 0.05 0.05 0.06 0.07 0.08 0.09 0.11 0.12 0.15 0.21 0.21 0.24 0.33 0.35 0.39 0.38 0.37 0.36 0.47 0.59 0.71 0.77 0.98 1.10 0.89 0.70 0.66 0.67 0.74 0.72 0.81 0.73 0.63 0.61 0.70 0.91 1.01 0.92 0.85 0.77
0.12 0.17 0.18 0.19 0.22 0.22 0.23 0.23 0.26 0.28 0.31 0.32 0.33 0.36 0.37 0.46 0.52 0.54 0.51 0.54 0.52 0.57 0.66 0.80 0.94 1.18 1.16 1.09 0.86 0.73 0.71 0.70 0.66 0.71 0.71 0.76 0.74 0.71 0.73 0.82 0.87 0.83 0.77
0.26 0.34 0.40 0.48 0.54 0.57 0.55 0.56 0.60 0.58 0.56 0.59 0.62 0.65 0.63 0.66 0.71 0.72 0.63 0.63 0.75 0.87 0.94 0.97 1.10 1.29 1.09 1.12 0.92 0.85 0.75 0.67 0.58 0.58 0.65 0.68 0.67 0.65 0.68 0.73 0.75 0.73 0.73
0.48 0.57 0.75 0.88 0.92 0.95 1.00 1.05 1.08 1.04 1.01 0.99 0.96 0.96 0.88 0.86 0.89 0.99 0.85 0.81 1.14 1.20 1.20 1.30 1.43 1.41 1.28 1.26 1.10 0.93 0.77 0.69 0.56 0.51 0.48 0.51 0.56 0.52 0.61 0.69 0.67 0.63 0.69
0.91 1.11 1.35 1.47 1.46 1.44 1.52 1.58 1.58 1.46 1.34 1.25 1.15 1.09 1.02 1.06 1.12 1.27 1.17 1.25 1.50 1.50 1.44 1.42 1.62 1.54 1.37 1.34 1.26 1.01 0.72 0.60 0.48 0.41 0.37 0.33 0.37 0.43 0.44 0.48 0.49 0.52 0.67
1.38 1.70 1.80 1.93 2.16 2.19 2.19 2.08 1.86 1.54 1.35 1.31 1.30 1.21 1.18 1.24 1.35 1.55 1.39 1.38 1.57 1.63 1.55 1.52 1.44 1.45 1.30 1.30 1.26 0.98 0.68 0.46 0.40 0.33 0.29 0.26 0.23 0.24 0.29 0.36 0.41 0.39 0.50
1.59 1.88 2.17 2.42 2.59 2.49 2.29 2.07 1.91 1.76 1.68 1.50 1.41 1.36 1.28 1.25 1.31 1.52 1.41 1.45 1.49 1.42 1.37 1.45 1.44 1.30 1.06 1.24 1.27 0.93 0.57 0.42 0.38 0.26 0.23 0.21 0.19 0.18 0.20 0.27 0.36 0.41 0.44
1.60 1.99 2.25 2.56 2.67 2.48 2.22 2.04 1.97 1.94 1.68 1.45 1.45 1.43 1.41 1.43 1.37 1.41 1.40 1.36 1.36 1.36 1.23 1.18 1.25 1.13 0.93 1.09 1.16 1.08 0.62 0.41 0.34 0.27 0.30 0.35 0.32 0.28 0.26 0.29 0.32 0.43 0.49
1.48 1.71 1.90 2.00 1.99 1.88 1.86 1.90 1.92 1.92 1.69 1.63 1.70 1.74 1.70 1.70 1.63 1.57 1.47 1.33 1.14 1.09 0.98 0.99 1.08 1.08 0.96 0.95 1.12 1.23 0.90 0.59 0.51 0.37 0.38 0.39 0.39 0.39 0.37 0.40 0.40 0.47 0.54
1.44 1.61 1.77 1.76 1.62 1.51 1.55 1.73 1.81 1.79 1.74 1.88 2.11 2.03 1.79 1.62 1.46 1.28 1.13 1.06 0.97 0.93 0.81 0.77 0.85 0.85 0.82 0.79 0.88 1.00 1.08 1.06 0.93 0.50 0.32 0.29 0.35 0.40 0.46 0.45 0.40 0.43 0.53
1.23 1.31 1.47 1.54 1.46 1.43 1.45 1.52 1.63 1.67 1.67 1.67 1.67 1.62 1.50 1.33 1.12 0.94 0.84 0.79 0.73 0.72 0.65 0.60 0.59 0.59 0.62 0.64 0.72 0.82 0.94 1.03 1.06 0.90 0.53 0.47 0.50 0.47 0.50 0.46 0.46 0.48 0.50
1.00 1.01 0.99 1.07 1.14 1.20 1.24 1.27 1.29 1.26 1.23 1.17 1.10 1.07 1.01 0.92 0.75 0.62 0.57 0.57 0.60 0.64 0.58 0.52 0.51 0.50 0.55 0.62 0.68 0.73 0.80 0.80 0.86 0.96 0.76 0.63 0.55 0.49 0.52 0.56 0.57 0.62 0.59

GEFSSE_prec_meanprecacc_072.txt.gz
Total_Precipitation_Accumulation
0.00 0.00 0.05 0.02 0.01 0.01 0.02 0.01 0.00 0.00 0.01 0.01 0.01 0.01 0.01 0.00 0.00 0.00 0.00 0.01 0.01 0.01 0.01 0.01 0.02 0.02 0.03 0.02 0.01 0.01 0.01 0.00 0.00 0.01 0.01 0.02 0.02 0.04 0.06 0.06 0.12 0.13 0.05
0.00 0.00 0.02 0.01 0.01 0.01 0.02 0.01 0.00 0.00 0.00 0.01 0.01 0.01 0.01 0.01 0.01 0.01 0.01 0.01 0.01 0.01 0.01 0.01 0.01 0.01 0.01 0.01 0.01 0.01 0.00 0.00 0.00 0.01 0.01 0.01 0.02 0.03 0.04 0.04 0.14 0.10 0.03
0.00 0.00 0.01 0.00 0.01 0.02 0.01 0.01 0.01 0.00 0.01 0.01 0.02 0.02 0.02 0.02 0.01 0.01 0.01 0.01 0.01 0.01 0.01 0.01 0.01 0.01 0.01 0.01 0.01 0.00 0.00 0.00 0.01 0.01 0.05 0.05 0.02 0.02 0.03 0.04 0.06 0.05 0.03
0.00 0.00 0.00 0.01 0.01 0.01 0.01 0.01 0.02 0.01 0.01 0.01 0.05 0.06 0.05 0.02 0.01 0.01 0.01 0.01 0.01 0.01 0.01 0.01 0.01 0.00 0.01 0.01 0.01 0.00 0.00 0.00 0.01 0.03 0.16 0.17 0.08 0.02 0.03 0.04 0.03 0.03 0.03
0.00 0.00 0.00 0.01 0.01 0.01 0.01 0.02 0.04 0.02 0.01 0.03 0.09 0.10 0.07 0.03 0.03 0.03 0.02 0.01 0.01 0.02 0.01 0.01 0.01 0.01 0.00 0.01 0.01 0.01 0.00 0.01 0.01 0.03 0.09 0.17 0.20 0.08 0.05 0.08 0.07 0.05 0.05
0.00 0.00 0.00 0.01 0.01 0.01 0.01 0.01 0.05 0.06 0.04 0.05 0.08 0.09 0.08 0.06 0.08 0.07 0.03 0.02 0.02 0.03 0.02 0.01 0.01 0.01 0.01 0.01 0.01 0.01 0.01 0.01 0.02 0.05 0.05 0.07 0.17 0.15 0.13 0.22 0.26 0.20 0.13
0.00 0.00 0.00 0.01 0.01 0.01 0.00 0.01 0.02 0.05 0.06 0.07 0.08 0.07 0.05 0.03 0.04 0.03 0.02 0.02 0.02 0.02 0.01 0.01 0.01 0.02 0.01 0.01 0.01 0.01 0.01 0.01 0.02 0.04 0.04 0.08 0.16 0.14 0.21 0.41 0.54 0.48 0.37
0.00 0.00 0.00 0.01 0.01 0.01 0.00 0.00 0.01 0.01 0.02 0.02 0.02 0.02 0.02 0.01 0.03 0.04 0.03 0.02 0.02 0.02 0.02 0.02 0.02 0.03 0.03 0.03 0.03 0.03 0.03 0.02 0.01 0.02 0.05 0.09 0.10 0.10 0.33 0.55 0.68 0.69 0.62
0.00 0.00 0.00 0.01 0.01 0.01 0.01 0.01 0.01 0.01 0.01 0.01 0.01 0.01 0.01 0.01 0.02 0.04 0.06 0.06 0.06 0.06 0.07 0.06 0.04 0.03 0.04 0.04 0.04 0.04 0.04 0.04 0.03 0.03 0.05 0.10 0.12 0.25 0.63 0.77 0.77 0.80 0.79
0.00 0.00 0.01 0.01 0.01 0.01 0.01 0.01 0.01 0.01 0.01 0.01 0.02 0.02 0.02 0.01 0.02 0.06 0.08 0.09 0.12 0.15 0.16 0.12 0.09 0.08 0.07 0.06 0.04 0.05 0.05 0.06 0.04 0.04 0.07 0.07 0.12 0.37 0.74 0.91 0.95 0.93 0.87
0.01 0.01 0.01 0.02 0.02 0.01 0.01 0.01 0.01 0.02 0.02 0.02 0.03 0.03 0.04 0.04 0.07 0.15 0.19 0.26 0.27 0.29 0.29 0.24 0.22 0.21 0.20 0.13 0.16 0.20 0.13 0.05 0.05 0.04 0.06 0.07 0.17 0.39 0.67 0.86 0.95 0.99 0.93
0.01 0.01 0.02 0.02 0.02 0.02 0.01 0.03 0.04 0.04 0.08 0.07 0.10 0.16 0.20 0.27 0.23 0.12 0.20 0.40 0.52 0.58 0.54 0.53 0.55 0.44 0.37 0.31 0.62 0.79 0.24 0.15 0.12 0.08 0.12 0.17 0.31 0.51 0.75 0.80 0.83 0.90 0.88
0.01 0.01 0.01 0.02 0.03 0.03 0.03 0.03 0.05 0.06 0.14 0.14 0.16 0.27 0.34 0.34 0.23 0.14 0.18 0.35 0.54 0.64 0.54 0.74 0.83 0.58 0.62 0.73 0.76 0.77 0.41 0.36 0.32 0.25 0.27 0.41 0.55 0.74 1.02 0.95 0.82 0.80 0.79
0.02 0.02 0.02 0.02 0.04 0.05 0.05 0.05 0.05 0.07 0.11 0.13 0.22 0.27 0.37 0.42 0.33 0.30 0.34 0.39 0.52 0.61 0.77 0.84 0.95 0.91 0.91 0.84 0.82 0.79 0.70 0.70 0.56 0.68 0.72 0.66 0.67 0.79 1.09 1.05 0.83 0.78 0.73
0.06 0.07 0.07 0.05 0.07 0.09 0.11 0.12 0.11 0.14 0.16 0.21 0.30 0.33 0.37 0.48 0.47 0.52 0.49 0.49 0.50 0.63 0.76 0.85 0.91 1.13 1.28 1.09 0.88 0.83 0.85 0.93 0.86 0.92 0.84 0.76 0.71 0.76 0.94 1.04 0.94 0.86 0.78
0.13 0.18 0.20 0.21 0.25 0.27 0.29 0.31 0.33 0.33 0.36 0.37 0.38 0.43 0.49 0.59 0.69 0.71 0.68 0.70 0.65 0.68 0.81 1.00 1.11 1.41 1.40 1.30 1.02 0.93 0.91 0.93 0.89 0.87 0.85 0.91 0.84 0.76 0.76 0.84 0.90 0.86 0.80
0.27 0.37 0.44 0.51 0.58 0.62 0.63 0.67 0.70 0.65 0.62 0.65 0.69 0.73 0.74 0.79 0.89 0.92 0.83 0.82 0.92 1.03 1.14 1.17 1.28 1.50 1.26 1.26 1.05 1.00 0.94 0.83 0.73 0.70 0.78 0.84 0.81 0.72 0.72 0.76 0.78 0.76 0.78
0.52 0.62 0.79 0.92 0.97 1.01 1.08 1.13 1.17 1.11 1.07 1.05 1.03 1.06 1.00 1.00 1.05 1.19 1.08 1.02 1.35 1.40 1.40 1.51 1.60 1.58 1.45 1.40 1.22 1.01 0.89 0.85 0.69 0.61 0.58 0.62 0.70 0.62 0.69 0.73 0.70 0.66 0.73
0.96 1.15 1.39 1.52 1.50 1.48 1.57 1.63 1.64 1.53 1.41 1.31 1.23 1.19 1.14 1.20 1.28 1.48 1.40 1.46 1.71 1.72 1.66 1.60 1.80 1.75 1.55 1.49 1.36 1.08 0.80 0.70 0.59 0.49 0.44 0.41 0.47 0.51 0.53 0.55 0.53 0.56 0.71
1.41 1.74 1.84 1.96 2.19 2.22 2.23 2.11 1.89 1.58 1.40 1.37 1.36 1.28 1.28 1.37 1.51 1.76 1.60 1.61 1.81 1.87 1.78 1.70 1.61 1.63 1.44 1.40 1.32 1.04 0.74 0.52 0.46 0.39 0.33 0.30 0.29 0.28 0.33 0.42 0.48 0.42 0.53
1.60 1.89 2.18 2.43 2.60 2.51 2.31 2.09 1.93 1.80 1.73 1.56 1.47 1.42 1.38 1.38 1.49 1.74 1.65 1.73 1.78 1.71 1.63 1.65 1.61 1.45 1.17 1.32 1.33 0.97 0.60 0.46 0.41 0.29 0.26 0.24 0.21 0.21 0.23 0.32 0.42 0.45 0.47
1.61 2.00 2.26 2.57 2.68 2.49 2.23 2.07 1.99 1.97 1.71 1.50 1.50 1.49 1.49 1.55 1.56 1.64 1.66 1.67 1.69 1.66 1.48 1.40 1.46 1.27 1.03 1.16 1.22 1.13 0.66 0.45 0.37 0.29 0.33 0.38 0.35 0.32 0.29 0.33 0.38 0.48 0.54
1.49 1.71 1.90 2.01 1.99 1.89 1.87 1.92 1.94 1.94 1.71 1.66 1.74 1.79 1.76 1.77 1.74 1.73 1.68 1.57 1.42 1.36 1.23 1.21 1.29 1.24 1.06 1.03 1.19 1.30 0.95 0.64 0.56 0.41 0.41 0.41 0.42 0.43 0.40 0.43 0.44 0.53 0.59
1.44 1.62 1.77 1.76 1.62 1.51 1.56 1.74 1.82 1.79 1.75 1.90 2.13 2.06 1.83 1.68 1.54 1.38 1.27 1.23 1.17 1.12 1.01 0.96 1.02 1.02 0.95 0.88 0.96 1.08 1.15 1.14 1.01 0.58 0.37 0.31 0.38 0.43 0.49 0.47 0.42 0.47 0.57
1.23 1.31 1.47 1.55 1.47 1.44 1.45 1.52 1.63 1.67 1.67 1.68 1.68 1.63 1.52 1.37 1.18 1.01 0.93 0.91 0.88 0.88 0.82 0.76 0.76 0.75 0.77 0.77 0.84 0.94 1.04 1.12 1.13 0.98 0.62 0.53 0.54 0.50 0.52 0.50 0.50 0.51 0.53
1.00 1.01 0.99 1.07 1.15 1.21 1.25 1.28 1.29 1.26 1.23 1.18 1.11 1.08 1.03 0.95 0.78 0.67 0.63 0.65 0.70 0.75 0.72 0.69 0.68 0.67 0.70 0.78 0.80 0.86 0.93 0.91 0.94 1.02 0.82 0.69 0.61 0.52 0.54 0.58 0.61 0.66 0.62

GEFSSE_prec_meanprecacc_078.txt.gz
Total_Precipitation_Accumulation
0.00 0.00 0.05 0.02 0.01 0.01 0.02 0.01 0.00 0.00 0.01 0.01 0.01 0.01 0.01 0.00 0.00 0.00 0.01 0.01 0.01 0.01 0.01 0.01 0.02 0.03 0.03 0.03 0.02 0.02 0.01 0.00 0.01 0.01 0.02 0.02 0.02 0.05 0.07 0.08 0.14 0.14 0.07
0.00 0.00 0.02 0.01 0.01 0.01 0.02 0.01 0.00 0.00 0.00 0.01 0.01 0.01 0.01 0.01 0.01 0.01 0.01 0.01 0.01 0.01 0.01 0.01 0.02 0.02 0.02 0.01 0.01 0.01 0.00 0.00 0.01 0.01 0.02 0.02 0.02 0.03 0.05 0.05 0.15 0.11 0.05
0.00 0.00 0.01 0.00 0.01 0.02 0.02 0.01 0.01 0.01 0.01 0.01 0.02 0.02 0.02 0.02 0.01 0.01 0.01 0.01 0.01 0.01 0.01 0.01 0.01 0.01 0.01 0.01 0.01 0.00 0.00 0.00 0.01 0.02 0.05 0.05 0.03 0.04 0.05 0.06 0.07 0.06 0.04
0.00 0.00 0.00 0.01 0.01 0.01 0.01 0.01 0.02 0.01 0.01 0.02 0.05 0.06 0.05 0.02 0.01 0.01 0.01 0.01 0.01 0.01 0.01 0.01 0.01 0.01 0.01 0.01 0.01 0.00 0.00 0.01 0.02 0.04 0.16 0.17 0.08 0.04 0.05 0.05 0.04 0.04 0.04
0.00 0.00 0.00 0.01 0.01 0.01 0.01 0.02 0.04 0.02 0.01 0.03 0.09 0.10 0.08 0.03 0.03 0.04 0.02 0.01 0.01 0.02 0.01 0.01 0.01 0.01 0.01 0.01 0.01 0.01 0.00 0.01 0.02 0.05 0.11 0.18 0.21 0.08 0.06 0.08 0.07 0.06 0.05
0.00 0.00 0.00 0.01 0.01 0.01 0.01 0.01 0.05 0.07 0.04 0.06 0.09 0.09 0.08 0.06 0.09 0.07 0.03 0.02 0.02 0.03 0.02 0.01 0.01 0.01 0.01 0.01 0.01 0.01 0.01 0.01 0.02 0.06 0.09 0.09 0.18 0.16 0.13 0.22 0.26 0.21 0.14
0.00 0.00 0.00 0.01 0.01 0.01 0.01 0.01 0.02 0.05 0.06 0.08 0.09 0.07 0.05 0.04 0.04 0.04 0.02 0.02 0.02 0.02 0.02 0.01 0.02 0.02 0.01 0.01 0.01 0.01 0.01 0.01 0.03 0.06 0.07 0.11 0.17 0.16 0.22 0.42 0.54 0.49 0.37
0.00 0.00 0.00 0.01 0.01 0.01 0.01 0.01 0.01 0.01 0.02 0.02 0.03 0.03 0.02 0.02 0.03 0.04 0.04 0.03 0.02 0.02 0.03 0.02 0.02 0.03 0.03 0.03 0.03 0.03 0.03 0.02 0.02 0.04 0.08 0.12 0.12 0.13 0.35 0.55 0.69 0.69 0.62
0.00 0.00 0.00 0.01 0.01 0.01 0.01 0.01 0.01 0.01 0.01 0.01 0.01 0.02 0.02 0.02 0.03 0.04 0.06 0.06 0.06 0.06 0.07 0.06 0.04 0.04 0.04 0.04 0.04 0.04 0.04 0.04 0.04 0.05 0.08 0.13 0.15 0.29 0.65 0.78 0.77 0.81 0.79
0.01 0.00 0.01 0.01 0.01 0.01 0.01 0.01 0.01 0.01 0.01 0.01 0.02 0.02 0.02 0.02 0.03 0.06 0.09 0.09 0.12 0.15 0.16 0.12 0.09 0.08 0.07 0.06 0.04 0.05 0.05 0.06 0.04 0.04 0.09 0.10 0.18 0.43 0.78 0.93 0.96 0.93 0.88
0.02 0.01 0.01 0.02 0.02 0.01 0.01 0.01 0.02 0.02 0.02 0.02 0.04 0.04 0.04 0.04 0.08 0.15 0.19 0.27 0.28 0.30 0.29 0.25 0.22 0.22 0.21 0.13 0.16 0.20 0.14 0.05 0.05 0.04 0.08 0.10 0.22 0.44 0.72 0.89 0.96 1.00 0.94
0.03 0.02 0.02 0.02 0.03 0.02 0.02 0.03 0.04 0.05 0.09 0.08 0.16 0.22 0.22 0.29 0.24 0.12 0.21 0.43 0.57 0.64 0.59 0.57 0.58 0.47 0.38 0.32 0.63 0.81 0.25 0.16 0.13 0.09 0.13 0.19 0.36 0.58 0.82 0.85 0.86 0.92 0.89
0.05 0.04 0.03 0.04 0.04 0.04 0.05 0.05 0.06 0.09 0.20 0.25 0.27 0.34 0.39 0.41 0.27 0.16 0.21 0.40 0.63 0.74 0.63 0.83 0.93 0.65 0.67 0.77 0.79 0.80 0.43 0.39 0.36 0.31 0.32 0.49 0.67 0.88 1.16 1.04 0.87 0.83 0.81
0.09 0.06 0.06 0.07 0.07 0.08 0.09 0.10 0.10 0.11 0.18 0.23 0.30 0.35 0.47 0.53 0.43 0.38 0.41 0.48 0.63 0.74 0.91 0.98 1.08 1.02 1.00 0.90 0.87 0.85 0.77 0.76 0.64 0.78 0.83 0.81 0.86 0.97 1.27 1.18 0.91 0.82 0.76
0.19 0.16 0.15 0.16 0.15 0.16 0.19 0.21 0.20 0.22 0.25 0.30 0.40 0.48 0.53 0.67 0.71 0.73 0.61 0.61 0.64 0.78 0.93 1.05 1.11 1.34 1.47 1.24 0.99 0.93 0.94 1.04 0.98 1.05 0.97 0.91 0.86 0.92 1.10 1.17 1.04 0.92 0.81
0.31 0.33 0.33 0.35 0.40 0.41 0.45 0.46 0.48 0.45 0.46 0.47 0.47 0.53 0.62 0.76 0.88 0.89 0.81 0.83 0.80 0.85 1.01 1.22 1.38 1.68 1.66 1.53 1.19 1.06 1.05 1.08 1.04 1.03 1.03 1.09 1.01 0.92 0.91 0.98 1.02 0.94 0.86
0.50 0.55 0.61 0.72 0.81 0.82 0.81 0.83 0.84 0.77 0.73 0.75 0.79 0.83 0.85 0.91 1.02 1.03 0.92 0.91 1.02 1.19 1.34 1.39 1.55 1.79 1.50 1.45 1.20 1.14 1.07 0.96 0.87 0.87 0.99 1.04 0.95 0.86 0.88 0.90 0.89 0.85 0.84
0.73 0.84 1.01 1.17 1.20 1.19 1.23 1.27 1.30 1.24 1.17 1.13 1.11 1.14 1.08 1.08 1.15 1.29 1.15 1.09 1.45 1.55 1.59 1.71 1.83 1.81 1.65 1.58 1.37 1.16 1.02 0.96 0.78 0.72 0.71 0.75 0.82 0.72 0.79 0.85 0.80 0.74 0.80
1.15 1.35 1.61 1.75 1.73 1.64 1.68 1.72 1.72 1.61 1.48 1.37 1.28 1.25 1.20 1.25 1.34 1.53 1.45 1.52 1.81 1.87 1.83 1.78 2.00 1.98 1.79 1.70 1.53 1.22 0.93 0.82 0.69 0.60 0.53 0.49 0.56 0.60 0.60 0.62 0.63 0.64 0.79
1.54 1.87 1.97 2.10 2.35 2.32 2.30 2.18 1.94 1.62 1.43 1.41 1.40 1.31 1.31 1.40 1.54 1.79 1.64 1.65 1.86 1.95 1.88 1.83 1.78 1.84 1.65 1.60 1.49 1.17 0.85 0.62 0.57 0.47 0.39 0.36 0.36 0.36 0.41 0.49 0.55 0.48 0.59
1.67 1.96 2.24 2.49 2.67 2.56 2.35 2.13 1.96 1.82 1.75 1.58 1.49 1.44 1.39 1.39 1.50 1.76 1.67 1.77 1.83 1.77 1.74 1.80 1.79 1.63 1.34 1.52 1.53 1.11 0.71 0.56 0.51 0.35 0.32 0.30 0.26 0.26 0.30 0.39 0.49 0.51 0.50
1.63 2.02 2.28 2.59 2.70 2.51 2.24 2.08 2.00 1.97 1.72 1.50 1.51 1.50 1.50 1.56 1.57 1.65 1.69 1.70 1.74 1.72 1.61 1.57 1.65 1.49 1.24 1.37 1.41 1.29 0.77 0.55 0.45 0.35 0.38 0.42 0.40 0.37 0.34 0.38 0.42 0.53 0.58
1.49 1.72 1.92 2.02 2.00 1.90 1.87 1.92 1.94 1.95 1.72 1.66 1.74 1.79 1.77 1.78 1.74 1.74 1.69 1.58 1.46 1.42 1.33 1.34 1.45 1.42 1.26 1.23 1.38 1.48 1.09 0.73 0.63 0.47 0.46 0.46 0.48 0.49 0.45 0.46 0.47 0.55 0.63
1.45 1.62 1.78 1.77 1.62 1.51 1.56 1.74 1.82 1.79 1.75 1.90 2.13 2.06 1.84 1.68 1.54 1.39 1.27 1.25 1.19 1.20 1.10 1.05 1.15 1.18 1.11 1.05 1.16 1.26 1.29 1.23 1.09 0.65 0.43 0.37 0.43 0.50 0.54 0.51 0.45 0.49 0.59
1.23 1.31 1.47 1.55 1.47 1.44 1.45 1.52 1.63 1.67 1.67 1.68 1.68 1.63 1.52 1.37 1.18 1.02 0.93 0.92 0.90 0.91 0.86 0.83 0.84 0.86 0.89 0.90 1.02 1.16 1.22 1.24 1.21 1.06 0.69 0.60 0.61 0.55 0.56 0.54 0.54 0.54 0.55
1.00 1.01 0.99 1.07 1.15 1.21 1.25 1.28 1.30 1.27 1.23 1.18 1.11 1.08 1.03 0.95 0.79 0.67 0.64 0.66 0.71 0.77 0.75 0.73 0.75 0.75 0.80 0.89 0.92 1.01 1.11 1.08 1.07 1.12 0.90 0.76 0.68 0.59 0.59 0.62 0.64 0.69 0.64